contact:dominique.lefevre@mio.osupytheas.fr, maurice.libes@osupytheas.fr, didier.mallarino@osupytheas.fr
Project:EMSO http://www.emso-fr.org/EMSO-France
Depth: 2436.0 m
Title:EMSO Ligure Ouest : Data MII capteur CSTAR
DateTime,Latitude,Longitude,Instrument_Serial,Reference_Counts,Signal_Counts,Corrected_Signal_raw_counts,Calculated_Beam_c_inverse_meters,Internal_thermistor_counts
DateTime,Latitude,Longitude,Instrument_Serial,Reference_Counts,Signal_Counts,Corrected_Signal_raw_counts,Calculated_Beam_c_inverse_meters,Internal_thermistor_counts
2017-10-17T00:02:11,42.805,6.029,CST-1368DR,11213,15313,15457,0.041,551
2017-10-17T00:05:16,42.805,6.029,CST-1368DR,11213,15311,15456,0.041,551
2017-10-17T00:08:21,42.805,6.029,CST-1368DR,11213,15310,15455,0.041,551
2017-10-17T00:11:26,42.805,6.029,CST-1368DR,11212,15313,15459,0.040,550
2017-10-17T00:14:31,42.805,6.029,CST-1368DR,11213,15316,15461,0.040,551
2017-10-17T00:17:35,42.805,6.029,CST-1368DR,11213,15316,15461,0.040,551
2017-10-17T00:20:40,42.805,6.029,CST-1368DR,11212,15316,15462,0.040,551
2017-10-17T00:23:45,42.805,6.029,CST-1368DR,11212,15312,15458,0.041,551
2017-10-17T00:26:50,42.805,6.029,CST-1368DR,11213,15313,15458,0.041,551
2017-10-17T00:29:55,42.805,6.029,CST-1368DR,11213,15311,15456,0.041,551
2017-10-17T00:33:00,42.805,6.029,CST-1368DR,11213,15314,15459,0.040,551
2017-10-17T00:36:05,42.805,6.029,CST-1368DR,11213,15311,15456,0.041,551
2017-10-17T00:39:10,42.805,6.029,CST-1368DR,11213,15313,15457,0.041,550
2017-10-17T00:42:15,42.805,6.029,CST-1368DR,11213,15313,15458,0.041,551
2017-10-17T00:45:19,42.805,6.029,CST-1368DR,11213,15315,15459,0.040,551
2017-10-17T00:48:24,42.805,6.029,CST-1368DR,11213,15315,15460,0.040,551
2017-10-17T00:51:29,42.805,6.029,CST-1368DR,11213,15310,15454,0.042,550
2017-10-17T00:54:34,42.805,6.029,CST-1368DR,11212,15313,15459,0.040,551
2017-10-17T00:57:39,42.805,6.029,CST-1368DR,11213,15313,15458,0.041,551
2017-10-17T01:00:44,42.805,6.029,CST-1368DR,11213,15314,15458,0.041,551
2017-10-17T01:03:49,42.805,6.029,CST-1368DR,11212,15309,15455,0.041,550
2017-10-17T01:06:54,42.805,6.029,CST-1368DR,11212,15313,15459,0.040,551
2017-10-17T01:09:59,42.805,6.029,CST-1368DR,11212,15307,15453,0.042,551
2017-10-17T01:13:03,42.805,6.029,CST-1368DR,11212,15312,15458,0.041,551
2017-10-17T01:16:08,42.805,6.029,CST-1368DR,11212,15311,15457,0.041,550
2017-10-17T01:19:13,42.805,6.029,CST-1368DR,11212,15313,15459,0.040,550
2017-10-17T01:22:18,42.805,6.029,CST-1368DR,11213,15312,15457,0.041,550
2017-10-17T01:25:23,42.805,6.029,CST-1368DR,11212,15313,15459,0.040,551
2017-10-17T01:28:28,42.805,6.029,CST-1368DR,11212,15312,15458,0.041,549
2017-10-17T01:31:33,42.805,6.029,CST-1368DR,11212,15310,15456,0.041,551
2017-10-17T01:34:38,42.805,6.029,CST-1368DR,11212,15306,15452,0.042,551
2017-10-17T01:37:43,42.805,6.029,CST-1368DR,11212,15310,15456,0.041,550
2017-10-17T01:40:47,42.805,6.029,CST-1368DR,11212,15306,15452,0.042,551
2017-10-17T01:43:52,42.805,6.029,CST-1368DR,11212,15312,15458,0.041,551
2017-10-17T01:46:57,42.805,6.029,CST-1368DR,11212,15311,15457,0.041,551
2017-10-17T01:50:02,42.805,6.029,CST-1368DR,11212,15300,15446,0.044,551
2017-10-17T01:53:07,42.805,6.029,CST-1368DR,11212,15309,15455,0.041,551
2017-10-17T01:56:12,42.805,6.029,CST-1368DR,11212,15314,15460,0.040,551
2017-10-17T01:59:17,42.805,6.029,CST-1368DR,11212,15314,15460,0.040,551
2017-10-17T02:02:22,42.805,6.029,CST-1368DR,11212,15303,15449,0.043,551
2017-10-17T02:05:27,42.805,6.029,CST-1368DR,11212,15313,15459,0.040,551
2017-10-17T02:08:32,42.805,6.029,CST-1368DR,11212,15310,15456,0.041,551
2017-10-17T02:11:36,42.805,6.029,CST-1368DR,11212,15313,15459,0.040,551
2017-10-17T02:14:41,42.805,6.029,CST-1368DR,11213,15311,15456,0.041,550
2017-10-17T02:17:46,42.805,6.029,CST-1368DR,11212,15301,15447,0.044,551
2017-10-17T02:20:51,42.805,6.029,CST-1368DR,11212,15312,15458,0.041,551
2017-10-17T02:23:56,42.805,6.029,CST-1368DR,11212,15303,15449,0.043,551
2017-10-17T02:27:01,42.805,6.029,CST-1368DR,11212,15309,15455,0.041,551
2017-10-17T02:30:06,42.805,6.029,CST-1368DR,11212,15310,15456,0.041,551
2017-10-17T02:33:11,42.805,6.029,CST-1368DR,11212,15305,15451,0.042,551
2017-10-17T02:36:16,42.805,6.029,CST-1368DR,11212,15308,15454,0.042,550
2017-10-17T02:39:20,42.805,6.029,CST-1368DR,11212,15312,15458,0.041,551
2017-10-17T02:42:25,42.805,6.029,CST-1368DR,11213,15310,15455,0.041,551
2017-10-17T02:45:30,42.805,6.029,CST-1368DR,11213,15314,15459,0.040,551
2017-10-17T02:48:35,42.805,6.029,CST-1368DR,11213,15311,15456,0.041,551
2017-10-17T02:51:40,42.805,6.029,CST-1368DR,11212,15311,15457,0.041,551
2017-10-17T02:54:45,42.805,6.029,CST-1368DR,11212,15313,15459,0.040,551
2017-10-17T02:57:50,42.805,6.029,CST-1368DR,11213,15310,15454,0.042,551
2017-10-17T03:00:55,42.805,6.029,CST-1368DR,11212,15313,15459,0.040,551
2017-10-17T03:04:00,42.805,6.029,CST-1368DR,11212,15313,15459,0.040,551
2017-10-17T03:07:04,42.805,6.029,CST-1368DR,11212,15315,15461,0.040,551
2017-10-17T03:10:09,42.805,6.029,CST-1368DR,11212,15315,15461,0.040,551
2017-10-17T03:13:14,42.805,6.029,CST-1368DR,11212,15314,15460,0.040,551
2017-10-17T03:16:19,42.805,6.029,CST-1368DR,11212,15314,15460,0.040,551
2017-10-17T03:19:24,42.805,6.029,CST-1368DR,11212,15311,15457,0.041,551
2017-10-17T03:22:29,42.805,6.029,CST-1368DR,11212,15309,15455,0.041,551
2017-10-17T03:25:34,42.805,6.029,CST-1368DR,11212,15310,15456,0.041,551
2017-10-17T03:28:39,42.805,6.029,CST-1368DR,11213,15312,15457,0.041,551
2017-10-17T03:31:44,42.805,6.029,CST-1368DR,11212,15314,15460,0.040,550
2017-10-17T03:34:49,42.805,6.029,CST-1368DR,11212,15309,15455,0.041,551
2017-10-17T03:37:53,42.805,6.029,CST-1368DR,11212,15302,15448,0.043,551
2017-10-17T03:40:58,42.805,6.029,CST-1368DR,11212,15307,15453,0.042,550
2017-10-17T03:44:03,42.805,6.029,CST-1368DR,11212,15310,15456,0.041,551
2017-10-17T03:47:08,42.805,6.029,CST-1368DR,11212,15313,15459,0.040,550
2017-10-17T03:50:13,42.805,6.029,CST-1368DR,11212,15309,15455,0.041,551
2017-10-17T03:53:18,42.805,6.029,CST-1368DR,11212,15310,15456,0.041,551
2017-10-17T03:56:23,42.805,6.029,CST-1368DR,11212,15309,15455,0.041,551
2017-10-17T03:59:28,42.805,6.029,CST-1368DR,11212,15309,15455,0.041,551
2017-10-17T04:02:33,42.805,6.029,CST-1368DR,11212,15310,15456,0.041,551
2017-10-17T04:05:37,42.805,6.029,CST-1368DR,11212,15311,15457,0.041,551
2017-10-17T04:08:42,42.805,6.029,CST-1368DR,11212,15303,15449,0.043,551
2017-10-17T04:11:47,42.805,6.029,CST-1368DR,11213,15309,15454,0.042,551
2017-10-17T04:14:52,42.805,6.029,CST-1368DR,11213,15307,15452,0.042,551
2017-10-17T04:17:57,42.805,6.029,CST-1368DR,11212,15312,15458,0.041,551
2017-10-17T04:21:02,42.805,6.029,CST-1368DR,11212,15309,15455,0.041,551
2017-10-17T04:24:07,42.805,6.029,CST-1368DR,11212,15307,15453,0.042,551
2017-10-17T04:27:12,42.805,6.029,CST-1368DR,11213,15309,15453,0.042,551
2017-10-17T04:30:17,42.805,6.029,CST-1368DR,11212,15311,15457,0.041,550
2017-10-17T04:33:21,42.805,6.029,CST-1368DR,11212,15309,15455,0.041,551
2017-10-17T04:36:26,42.805,6.029,CST-1368DR,11212,15310,15456,0.041,551
2017-10-17T04:39:31,42.805,6.029,CST-1368DR,11213,15310,15454,0.042,551
2017-10-17T04:42:36,42.805,6.029,CST-1368DR,11213,15313,15458,0.041,551
2017-10-17T04:45:41,42.805,6.029,CST-1368DR,11212,15310,15456,0.041,551
2017-10-17T04:48:46,42.805,6.029,CST-1368DR,11212,15313,15459,0.040,551
2017-10-17T04:51:51,42.805,6.029,CST-1368DR,11212,15309,15455,0.041,550
2017-10-17T04:54:56,42.805,6.029,CST-1368DR,11213,15310,15455,0.041,551
2017-10-17T04:58:01,42.805,6.029,CST-1368DR,11212,15311,15457,0.041,551
2017-10-17T05:01:05,42.805,6.029,CST-1368DR,11212,15313,15459,0.040,551
2017-10-17T05:04:10,42.805,6.029,CST-1368DR,11212,15312,15458,0.041,551
2017-10-17T05:07:15,42.805,6.029,CST-1368DR,11212,15303,15449,0.043,550
2017-10-17T05:10:20,42.805,6.029,CST-1368DR,11212,15309,15455,0.041,551
2017-10-17T05:13:25,42.805,6.029,CST-1368DR,11212,15310,15456,0.041,551
2017-10-17T05:16:30,42.805,6.029,CST-1368DR,11212,15312,15458,0.041,551
2017-10-17T05:19:35,42.805,6.029,CST-1368DR,11212,15310,15456,0.041,551
2017-10-17T05:22:40,42.805,6.029,CST-1368DR,11212,15313,15459,0.040,551
2017-10-17T05:25:45,42.805,6.029,CST-1368DR,11212,15310,15456,0.041,551
2017-10-17T05:28:50,42.805,6.029,CST-1368DR,11212,15301,15447,0.044,551
2017-10-17T05:31:54,42.805,6.029,CST-1368DR,11212,15311,15457,0.041,551
2017-10-17T05:34:59,42.805,6.029,CST-1368DR,11213,15313,15457,0.041,551
2017-10-17T05:38:04,42.805,6.029,CST-1368DR,11212,15307,15453,0.042,551
2017-10-17T05:41:09,42.805,6.029,CST-1368DR,11212,15310,15456,0.041,551
2017-10-17T05:44:14,42.805,6.029,CST-1368DR,11212,15311,15457,0.041,551
2017-10-17T05:47:19,42.805,6.029,CST-1368DR,11212,15313,15459,0.040,550
2017-10-17T05:50:24,42.805,6.029,CST-1368DR,11212,15313,15459,0.040,551
2017-10-17T05:53:29,42.805,6.029,CST-1368DR,11212,15310,15456,0.041,551
2017-10-17T05:56:34,42.805,6.029,CST-1368DR,11212,15316,15462,0.040,551
2017-10-17T05:59:38,42.805,6.029,CST-1368DR,11212,15311,15457,0.041,551
2017-10-17T06:02:43,42.805,6.029,CST-1368DR,11212,15312,15458,0.041,551
2017-10-17T06:05:48,42.805,6.029,CST-1368DR,11212,15309,15455,0.041,551
2017-10-17T06:08:53,42.805,6.029,CST-1368DR,11212,15313,15459,0.040,551
2017-10-17T06:11:58,42.805,6.029,CST-1368DR,11212,15312,15458,0.041,551
2017-10-17T06:15:03,42.805,6.029,CST-1368DR,11212,15306,15452,0.042,551
2017-10-17T06:18:08,42.805,6.029,CST-1368DR,11212,15311,15457,0.041,551
2017-10-17T06:21:13,42.805,6.029,CST-1368DR,11212,15313,15459,0.040,551
2017-10-17T06:24:18,42.805,6.029,CST-1368DR,11212,15313,15459,0.040,551
2017-10-17T06:27:22,42.805,6.029,CST-1368DR,11212,15313,15459,0.040,551
2017-10-17T06:30:27,42.805,6.029,CST-1368DR,11212,15313,15459,0.040,550
2017-10-17T06:33:32,42.805,6.029,CST-1368DR,11212,15312,15458,0.041,551
2017-10-17T06:36:37,42.805,6.029,CST-1368DR,11212,15313,15459,0.040,551
2017-10-17T06:39:42,42.805,6.029,CST-1368DR,11212,15313,15459,0.040,551
2017-10-17T06:42:47,42.805,6.029,CST-1368DR,11212,15309,15455,0.041,551
2017-10-17T06:45:52,42.805,6.029,CST-1368DR,11212,15313,15459,0.040,550
2017-10-17T06:48:57,42.805,6.029,CST-1368DR,11212,15306,15452,0.042,550
2017-10-17T06:52:02,42.805,6.029,CST-1368DR,11212,15314,15460,0.040,551
2017-10-17T06:55:06,42.805,6.029,CST-1368DR,11212,15313,15459,0.040,551
2017-10-17T06:58:11,42.805,6.029,CST-1368DR,11212,15310,15456,0.041,551
2017-10-17T07:01:16,42.805,6.029,CST-1368DR,11212,15303,15449,0.043,551
2017-10-17T07:04:21,42.805,6.029,CST-1368DR,11212,15313,15459,0.040,551
2017-10-17T07:07:26,42.805,6.029,CST-1368DR,11212,15314,15460,0.040,551
2017-10-17T07:10:31,42.805,6.029,CST-1368DR,11212,15311,15457,0.041,551
2017-10-17T07:13:36,42.805,6.029,CST-1368DR,11212,15311,15457,0.041,550
2017-10-17T07:16:41,42.805,6.029,CST-1368DR,11212,15311,15457,0.041,551
2017-10-17T07:19:46,42.805,6.029,CST-1368DR,11212,15313,15459,0.040,551
2017-10-17T07:22:50,42.805,6.029,CST-1368DR,11212,15315,15461,0.040,551
2017-10-17T07:25:55,42.805,6.029,CST-1368DR,11212,15307,15453,0.042,550
2017-10-17T07:29:00,42.805,6.029,CST-1368DR,11212,15313,15459,0.040,551
2017-10-17T07:32:05,42.805,6.029,CST-1368DR,11212,15311,15457,0.041,551
2017-10-17T07:35:10,42.805,6.029,CST-1368DR,11212,15311,15457,0.041,551
2017-10-17T07:38:15,42.805,6.029,CST-1368DR,11212,15318,15464,0.039,551
2017-10-17T07:41:20,42.805,6.029,CST-1368DR,11212,15321,15467,0.038,551
2017-10-17T07:44:25,42.805,6.029,CST-1368DR,11212,15320,15466,0.039,551
2017-10-17T07:47:30,42.805,6.029,CST-1368DR,11212,15320,15467,0.038,551
2017-10-17T07:50:35,42.805,6.029,CST-1368DR,11212,15315,15461,0.040,551
2017-10-17T07:53:39,42.805,6.029,CST-1368DR,11212,15318,15465,0.039,550
2017-10-17T07:56:44,42.805,6.029,CST-1368DR,11212,15320,15467,0.038,551
2017-10-17T07:59:49,42.805,6.029,CST-1368DR,11212,15317,15463,0.039,551
2017-10-17T08:02:54,42.805,6.029,CST-1368DR,11212,15321,15467,0.038,550
2017-10-17T08:05:59,42.805,6.029,CST-1368DR,11212,15317,15463,0.039,550
2017-10-17T08:09:04,42.805,6.029,CST-1368DR,11212,15320,15466,0.039,551
2017-10-17T08:12:09,42.805,6.029,CST-1368DR,11212,15321,15468,0.038,550
2017-10-17T08:15:14,42.805,6.029,CST-1368DR,11212,15321,15467,0.038,551
2017-10-17T08:18:19,42.805,6.029,CST-1368DR,11212,15322,15468,0.038,551
2017-10-17T08:21:23,42.805,6.029,CST-1368DR,11212,15322,15468,0.038,551
2017-10-17T08:24:28,42.805,6.029,CST-1368DR,11212,15321,15467,0.038,551
2017-10-17T08:27:33,42.805,6.029,CST-1368DR,11212,15315,15461,0.040,551
2017-10-17T08:30:38,42.805,6.029,CST-1368DR,11213,15321,15466,0.039,551
2017-10-17T08:33:43,42.805,6.029,CST-1368DR,11213,15323,15468,0.038,550
2017-10-17T08:36:48,42.805,6.029,CST-1368DR,11212,15322,15468,0.038,551
2017-10-17T08:39:53,42.805,6.029,CST-1368DR,11212,15322,15469,0.038,550
2017-10-17T08:42:58,42.805,6.029,CST-1368DR,11212,15320,15467,0.038,551
2017-10-17T08:46:03,42.805,6.029,CST-1368DR,11212,15323,15469,0.038,550
2017-10-17T08:49:07,42.805,6.029,CST-1368DR,11212,15321,15468,0.038,551
2017-10-17T08:52:12,42.805,6.029,CST-1368DR,11212,15321,15467,0.038,551
2017-10-17T08:55:17,42.805,6.029,CST-1368DR,11212,15323,15470,0.038,551
2017-10-17T08:58:22,42.805,6.029,CST-1368DR,11212,15323,15470,0.038,551
2017-10-17T09:01:27,42.805,6.029,CST-1368DR,11212,15324,15470,0.038,551
2017-10-17T09:04:32,42.805,6.029,CST-1368DR,11212,15314,15460,0.040,551
2017-10-17T09:07:37,42.805,6.029,CST-1368DR,11212,15320,15467,0.038,551
2017-10-17T09:10:42,42.805,6.029,CST-1368DR,11212,15321,15468,0.038,551
2017-10-17T09:13:47,42.805,6.029,CST-1368DR,11212,15320,15466,0.039,550
2017-10-17T09:16:51,42.805,6.029,CST-1368DR,11212,15322,15469,0.038,551
2017-10-17T09:19:56,42.805,6.029,CST-1368DR,11212,15316,15462,0.040,551
2017-10-17T09:23:01,42.805,6.029,CST-1368DR,11212,15323,15469,0.038,551
2017-10-17T09:26:06,42.805,6.029,CST-1368DR,11212,15320,15467,0.038,551
2017-10-17T09:29:11,42.805,6.029,CST-1368DR,11212,15323,15469,0.038,551
2017-10-17T09:32:16,42.805,6.029,CST-1368DR,11212,15323,15469,0.038,551
2017-10-17T09:35:21,42.805,6.029,CST-1368DR,11212,15320,15467,0.038,550
2017-10-17T09:38:26,42.805,6.029,CST-1368DR,11212,15320,15466,0.039,551
2017-10-17T09:41:31,42.805,6.029,CST-1368DR,11212,15322,15469,0.038,551
2017-10-17T09:44:35,42.805,6.029,CST-1368DR,11212,15322,15468,0.038,551
2017-10-17T09:47:40,42.805,6.029,CST-1368DR,11212,15323,15470,0.038,551
2017-10-17T09:50:45,42.805,6.029,CST-1368DR,11212,15320,15467,0.038,551
2017-10-17T09:53:50,42.805,6.029,CST-1368DR,11212,15318,15465,0.039,551
2017-10-17T09:56:55,42.805,6.029,CST-1368DR,11212,15322,15469,0.038,551
2017-10-17T10:00:00,42.805,6.029,CST-1368DR,11212,15323,15470,0.038,550
2017-10-17T10:03:05,42.805,6.029,CST-1368DR,11212,15321,15467,0.038,551
2017-10-17T10:06:10,42.805,6.029,CST-1368DR,11212,15319,15466,0.039,550
2017-10-17T10:09:15,42.805,6.029,CST-1368DR,11212,15323,15469,0.038,551
2017-10-17T10:12:20,42.805,6.029,CST-1368DR,11212,15322,15469,0.038,551
2017-10-17T10:15:24,42.805,6.029,CST-1368DR,11212,15322,15468,0.038,551
2017-10-17T10:18:29,42.805,6.029,CST-1368DR,11212,15324,15471,0.037,551
2017-10-17T10:21:34,42.805,6.029,CST-1368DR,11212,15325,15471,0.037,551
2017-10-17T10:24:39,42.805,6.029,CST-1368DR,11212,15325,15471,0.037,551
2017-10-17T10:27:44,42.805,6.029,CST-1368DR,11212,15322,15468,0.038,551
2017-10-17T10:30:49,42.805,6.029,CST-1368DR,11212,15323,15469,0.038,551
2017-10-17T10:33:54,42.805,6.029,CST-1368DR,11212,15325,15471,0.037,551
2017-10-17T10:36:59,42.805,6.029,CST-1368DR,11212,15324,15471,0.037,551
2017-10-17T10:40:04,42.805,6.029,CST-1368DR,11212,15323,15469,0.038,551
2017-10-17T10:43:08,42.805,6.029,CST-1368DR,11212,15320,15466,0.039,550
2017-10-17T10:46:13,42.805,6.029,CST-1368DR,11212,15325,15471,0.037,551
2017-10-17T10:49:18,42.805,6.029,CST-1368DR,11212,15323,15470,0.038,551
2017-10-17T10:52:23,42.805,6.029,CST-1368DR,11212,15325,15471,0.037,551
2017-10-17T10:55:28,42.805,6.029,CST-1368DR,11212,15323,15469,0.038,551
2017-10-17T10:58:33,42.805,6.029,CST-1368DR,11212,15324,15470,0.038,551
2017-10-17T11:01:38,42.805,6.029,CST-1368DR,11212,15324,15471,0.037,550
2017-10-17T11:04:43,42.805,6.029,CST-1368DR,11212,15325,15471,0.037,551
2017-10-17T11:07:48,42.805,6.029,CST-1368DR,11212,15318,15464,0.039,551
2017-10-17T11:10:52,42.805,6.029,CST-1368DR,11212,15326,15472,0.037,551
2017-10-17T11:13:57,42.805,6.029,CST-1368DR,11212,15317,15463,0.039,551
2017-10-17T11:17:02,42.805,6.029,CST-1368DR,11212,15323,15470,0.038,551
2017-10-17T11:20:07,42.805,6.029,CST-1368DR,11212,15324,15470,0.038,551
2017-10-17T11:23:12,42.805,6.029,CST-1368DR,11212,15325,15471,0.037,551
2017-10-17T11:26:17,42.805,6.029,CST-1368DR,11212,15324,15471,0.037,551
2017-10-17T11:29:22,42.805,6.029,CST-1368DR,11212,15322,15468,0.038,550
2017-10-17T11:32:27,42.805,6.029,CST-1368DR,11212,15325,15471,0.037,550
2017-10-17T11:35:32,42.805,6.029,CST-1368DR,11212,15325,15471,0.037,551
2017-10-17T11:38:36,42.805,6.029,CST-1368DR,11212,15326,15472,0.037,551
2017-10-17T11:41:41,42.805,6.029,CST-1368DR,11212,15326,15472,0.037,551
2017-10-17T11:44:46,42.805,6.029,CST-1368DR,11212,15326,15472,0.037,551
2017-10-17T11:47:51,42.805,6.029,CST-1368DR,11212,15324,15470,0.038,551
2017-10-17T11:50:56,42.805,6.029,CST-1368DR,11212,15325,15471,0.037,551
2017-10-17T11:54:01,42.805,6.029,CST-1368DR,11212,15321,15468,0.038,551
2017-10-17T11:57:06,42.805,6.029,CST-1368DR,11212,15321,15468,0.038,551
2017-10-17T12:00:11,42.805,6.029,CST-1368DR,11211,15323,15471,0.037,551
2017-10-17T12:03:16,42.805,6.029,CST-1368DR,11212,15321,15468,0.038,551
2017-10-17T12:06:21,42.805,6.029,CST-1368DR,11212,15325,15471,0.037,551
2017-10-17T12:09:25,42.805,6.029,CST-1368DR,11212,15324,15470,0.038,551
2017-10-17T12:12:30,42.805,6.029,CST-1368DR,11212,15325,15471,0.037,551
2017-10-17T12:15:35,42.805,6.029,CST-1368DR,11212,15324,15470,0.038,551
2017-10-17T12:18:40,42.805,6.029,CST-1368DR,11212,15322,15468,0.038,551
2017-10-17T12:21:45,42.805,6.029,CST-1368DR,11212,15323,15469,0.038,551
2017-10-17T12:24:50,42.805,6.029,CST-1368DR,11212,15322,15468,0.038,550
2017-10-17T12:27:55,42.805,6.029,CST-1368DR,11212,15324,15471,0.037,551
2017-10-17T12:31:00,42.805,6.029,CST-1368DR,11212,15321,15467,0.038,550
2017-10-17T12:34:05,42.805,6.029,CST-1368DR,11212,15324,15471,0.037,551
2017-10-17T12:37:09,42.805,6.029,CST-1368DR,11211,15321,15469,0.038,551
2017-10-17T12:40:14,42.805,6.029,CST-1368DR,11212,15323,15469,0.038,551
2017-10-17T12:43:19,42.805,6.029,CST-1368DR,11212,15324,15471,0.037,550
2017-10-17T12:46:24,42.805,6.029,CST-1368DR,11212,15322,15468,0.038,551
2017-10-17T12:49:29,42.805,6.029,CST-1368DR,11212,15318,15465,0.039,551
2017-10-17T12:52:34,42.805,6.029,CST-1368DR,11211,15320,15468,0.038,551
2017-10-17T12:55:39,42.805,6.029,CST-1368DR,11212,15323,15469,0.038,551
2017-10-17T12:58:44,42.805,6.029,CST-1368DR,11211,15324,15472,0.037,551
2017-10-17T13:01:49,42.805,6.029,CST-1368DR,11211,15321,15468,0.038,551
2017-10-17T13:04:53,42.805,6.029,CST-1368DR,11212,15319,15466,0.039,551
2017-10-17T13:07:58,42.805,6.029,CST-1368DR,11212,15323,15470,0.038,551
2017-10-17T13:11:03,42.805,6.029,CST-1368DR,11212,15321,15468,0.038,551
2017-10-17T13:14:08,42.805,6.029,CST-1368DR,11211,15325,15472,0.037,551
2017-10-17T13:17:13,42.805,6.029,CST-1368DR,11212,15320,15466,0.039,550
2017-10-17T13:20:18,42.805,6.029,CST-1368DR,11212,15326,15472,0.037,551
2017-10-17T13:23:23,42.805,6.029,CST-1368DR,11212,15321,15467,0.038,551
2017-10-17T13:26:28,42.805,6.029,CST-1368DR,11211,15323,15470,0.038,551
2017-10-17T13:29:33,42.805,6.029,CST-1368DR,11211,15320,15468,0.038,550
2017-10-17T13:32:37,42.805,6.029,CST-1368DR,11211,15322,15470,0.038,551
2017-10-17T13:35:42,42.805,6.029,CST-1368DR,11212,15325,15471,0.037,551
2017-10-17T13:38:47,42.805,6.029,CST-1368DR,11212,15321,15467,0.038,550
2017-10-17T13:41:52,42.805,6.029,CST-1368DR,11212,15326,15472,0.037,551
2017-10-17T13:44:57,42.805,6.029,CST-1368DR,11212,15327,15473,0.037,551
2017-10-17T13:48:02,42.805,6.029,CST-1368DR,11212,15325,15471,0.037,550
2017-10-17T13:51:07,42.805,6.029,CST-1368DR,11212,15327,15473,0.037,551
2017-10-17T13:54:12,42.805,6.029,CST-1368DR,11212,15324,15470,0.038,551
2017-10-17T13:57:17,42.805,6.029,CST-1368DR,11212,15325,15471,0.037,551
2017-10-17T14:00:22,42.805,6.029,CST-1368DR,11211,15325,15472,0.037,551
2017-10-17T14:03:26,42.805,6.029,CST-1368DR,11212,15326,15473,0.037,550
2017-10-17T14:06:31,42.805,6.029,CST-1368DR,11212,15326,15472,0.037,550
2017-10-17T14:09:36,42.805,6.029,CST-1368DR,11211,15325,15472,0.037,551
2017-10-17T14:12:41,42.805,6.029,CST-1368DR,11211,15324,15471,0.037,551
2017-10-17T14:15:46,42.805,6.029,CST-1368DR,11211,15320,15468,0.038,551
2017-10-17T14:18:51,42.805,6.029,CST-1368DR,11211,15323,15471,0.037,550
2017-10-17T14:21:56,42.805,6.029,CST-1368DR,11211,15317,15464,0.039,551
2017-10-17T14:25:01,42.805,6.029,CST-1368DR,11211,15325,15472,0.037,551
2017-10-17T14:28:06,42.805,6.029,CST-1368DR,11212,15327,15473,0.037,551
2017-10-17T14:31:10,42.805,6.029,CST-1368DR,11211,15327,15474,0.037,551
2017-10-17T14:34:15,42.805,6.029,CST-1368DR,11212,15325,15471,0.037,550
2017-10-17T14:37:20,42.805,6.029,CST-1368DR,11212,15322,15468,0.038,551
2017-10-17T14:40:25,42.805,6.029,CST-1368DR,11212,15321,15467,0.038,551
2017-10-17T14:43:30,42.805,6.029,CST-1368DR,11212,15324,15470,0.038,550
2017-10-17T14:46:35,42.805,6.029,CST-1368DR,11211,15318,15466,0.039,551
2017-10-17T14:49:40,42.805,6.029,CST-1368DR,11211,15318,15465,0.039,551
2017-10-17T14:52:45,42.805,6.029,CST-1368DR,11212,15324,15470,0.038,551
2017-10-17T14:55:50,42.805,6.029,CST-1368DR,11211,15321,15469,0.038,551
2017-10-17T14:58:54,42.805,6.029,CST-1368DR,11212,15322,15469,0.038,551
2017-10-17T15:01:59,42.805,6.029,CST-1368DR,11212,15324,15471,0.037,551
2017-10-17T15:05:04,42.805,6.029,CST-1368DR,11212,15321,15468,0.038,551
2017-10-17T15:08:09,42.805,6.029,CST-1368DR,11211,15319,15467,0.038,551
2017-10-17T15:11:14,42.805,6.029,CST-1368DR,11211,15322,15469,0.038,551
2017-10-17T15:14:19,42.805,6.029,CST-1368DR,11211,15318,15466,0.039,551
2017-10-17T15:17:24,42.805,6.029,CST-1368DR,11211,15325,15472,0.037,551
2017-10-17T15:20:29,42.805,6.029,CST-1368DR,11212,15323,15469,0.038,551
2017-10-17T15:23:34,42.805,6.029,CST-1368DR,11212,15321,15468,0.038,551
2017-10-17T15:26:38,42.805,6.029,CST-1368DR,11211,15321,15468,0.038,551
2017-10-17T15:29:43,42.805,6.029,CST-1368DR,11211,15324,15472,0.037,551
2017-10-17T15:32:48,42.805,6.029,CST-1368DR,11212,15323,15469,0.038,551
2017-10-17T15:35:53,42.805,6.029,CST-1368DR,11212,15319,15465,0.039,551
2017-10-17T15:38:58,42.805,6.029,CST-1368DR,11212,15321,15468,0.038,550
2017-10-17T15:42:03,42.805,6.029,CST-1368DR,11211,15311,15458,0.041,551
2017-10-17T15:45:08,42.805,6.029,CST-1368DR,11212,15324,15470,0.038,551
2017-10-17T15:48:13,42.805,6.029,CST-1368DR,11211,15323,15471,0.037,551
2017-10-17T15:51:18,42.805,6.029,CST-1368DR,11212,15321,15468,0.038,551
2017-10-17T15:54:23,42.805,6.029,CST-1368DR,11211,15315,15462,0.040,550
2017-10-17T15:57:27,42.805,6.029,CST-1368DR,11211,15322,15469,0.038,551
2017-10-17T16:00:32,42.805,6.029,CST-1368DR,11212,15323,15469,0.038,550
2017-10-17T16:03:37,42.805,6.029,CST-1368DR,11212,15318,15465,0.039,551
2017-10-17T16:06:42,42.805,6.029,CST-1368DR,11212,15324,15470,0.038,551
2017-10-17T16:09:47,42.805,6.029,CST-1368DR,11212,15323,15469,0.038,551
2017-10-17T16:12:52,42.805,6.029,CST-1368DR,11212,15323,15469,0.038,551
2017-10-17T16:15:57,42.805,6.029,CST-1368DR,11212,15326,15472,0.037,551
2017-10-17T16:19:02,42.805,6.029,CST-1368DR,11212,15320,15466,0.039,551
2017-10-17T16:22:07,42.805,6.029,CST-1368DR,11211,15321,15468,0.038,550
2017-10-17T16:25:11,42.805,6.029,CST-1368DR,11211,15318,15465,0.039,551
2017-10-17T16:28:16,42.805,6.029,CST-1368DR,11212,15324,15470,0.038,551
2017-10-17T16:31:21,42.805,6.029,CST-1368DR,11212,15322,15469,0.038,551
2017-10-17T16:34:26,42.805,6.029,CST-1368DR,11211,15319,15467,0.038,551
2017-10-17T16:37:31,42.805,6.029,CST-1368DR,11212,15325,15471,0.037,551
2017-10-17T16:40:36,42.805,6.029,CST-1368DR,11211,15323,15470,0.038,550